STARLINK-32475, 61728

Orbit data source: Space-Track

STARLINK-32475, 61728 is a payload satellite owned by SpaceX/Seattle (US) in LEO that was launched on Wed, 30 Oct 2024 UTC via an FALCON 9 launch vehicle from the Air Force Eastern Test Range (AFETR). Payload-class satellites include a variety of spacecraft equipped with specific instruments for various scientific and technological missions. These include communications satellites like Starlink; space stations such as the ISS; scientific satellites like the Hubble; Earth observation satellites from companies like Planet Labs, Umbra, and HawkEye 360; GPS; miniature CubeSats for education and research; and military/defense satellites.

Loading next visibility...
Identifier
61728, 2024-196X
Orbit
LEO
Last TLE update
13 hours ago
Origin
Manufacturer
SpaceX/Seattle
Mission
Operational Commercial Communications
Bus & Motor
STARLINK V2M, Unknown motor
Mass
730 kg wet, ~700 kg dry
Launch date (UTC)
2024-10-30 (9 months ago)
Launch vehicle
FALCON 9
Launch site
Air Force Eastern Test Range (AFETR)
Object type
Payload
Rocket body
Debris
Shape & HBR
Box + 2 Pan, 14.5 m
Radar Cross Section
36.964 m², Large (>1 m²)

Expand to show TLE details & history

TLE from 13 hours ago
0 STARLINK-32475
1 61728U 24196X   25199.44463119 -.00003153  00000-0 -94444-4 0  9997
2 61728  53.1601 109.3091 0001366  60.4747 299.6390 15.30170905 41294
Epoch: 2025-07-18T10:40Z
TLE epoch observation values (Epoch: 2025-07-18T10:40:16.134Z)
Latitude
-0.00002°
Longitude
12.74586°
Altitude
475.739 km
Speed
7.629 km/s
True Right ascension
07h 17m 14s
True Declination
0° 00' 00"
Sunlit
Object was in daylight at epoch
Visualization orbit readout
Latitude
44.93081°
Longitude
142.21013°
Altitude
479.458 km
Speed
7.632 km/s
Apparent Right ascension
20h 14m 57s
Apparent Declination
10° 07' 17"
Sunlit
Object is in daylight
Visualization observer readout
Local Sidereal Time
12:31:14
Azimuth
65.099° ENE
Elevation
-12.555°
Doppler factor
1
Orbital elements
Apogee altitude
476.495 km
Perigee altitude
474.622 km
Semi-major axis
6,853.695 km
Eccentricity
0.00014
Inclination
53.1601°
RAAN
109.3091°
Arg. of periapsis
60.4747°
True anomaly
299.62539°
Mean anomaly
299.639°
Eccentric anomaly
299.6322°
Mean motion
3.82522 °/min
Orbital period
94.11 mins
BSTAR
-0.000094444
Loading maneuver chart data...
Loading SW <> Apogee altitude chart data...
Loading historical data...
Loading historical data...
Loading historical data...
Loading historical data...
Loading historical data...
Loading historical data...
Loading historical data...
|